sat.trackr.live / text

‹ back to catalog

STARLINK-30932

NORAD 58523 · 2023-191R

PAYLOAD ACTIVE UNKNOWN

§ Identity

Operator
Country
US
Launch date
2023-12-07
Launch site
AFETR
Launch vehicle
Mass (kg)
RCS (m²)

Purposes: comms

External: N2YO · Heavens-Above · Gunter

§ Orbital elements

Epoch: 2026-09-20T05:02:05.039520Z

Period
94.27 min
Inclination
43.0026°
Eccentricity
0.0001090
Mean motion
15.27574912 rev/d
Perigee alt
482.3 km
Apogee alt
483.8 km
Semi-major
6,861.2 km
B*
-2.0420e-5
RAAN
84.6323°
Arg perigee
273.8571°
Mean anomaly
86.2156°
Rev number
15,517

§ Raw data

STARLINK-309321 58523U 23191R   26263.20978055 -.00000824  00000+0 -20420-4 0  99912 58523  43.0026  84.6323 0001090 273.8571  86.2156 15.27574912155179

JSON: /api/v1/satellites/58523 · /tle

For live sub-satellite position, see the globe view (requires WebGL).

§ Visibility from observer

Set your observer location to see the next 7 days of passes ≥ 10°. The values pass through the URL so the page stays shareable.

No JS? Fill the form by hand. The geolocation button needs JavaScript.